Weather History for Szolnok, Hungary

Change the Weather History Date:

Tuesday, March 19, 2013

  Actual Average (LHBP) Record (LHBP)
Temperature  
Mean Temperature 45 °F -  
Max Temperature 51 °F 49 °F 69 °F (2004)
Min Temperature 39 °F 30 °F 26 °F (2009)
Degree Days  
Heating Degree Days 20    
Moisture  
Dew Point 35 °F    
Average Humidity 71    
Maximum Humidity 93    
Minimum Humidity 44    
Precipitation  
Precipitation 0.00 in - - ()
Sea Level Pressure  
Sea Level Pressure 29.48 in    
Wind  
Wind Speed 12 mph ()    
Max Wind Speed 22 mph    
Max Gust Speed 38 mph    
Visibility 5.6 miles    
Events Rain    
Averages and records for this station are not official NWS values.
T = Trace of Precipitation, MM = Missing Value Source: Averaged Metar Reports

Daily Weather History Graph

Daily Weather History Graph

Search for Another Location

Airport:

Trip Planner

Search our weather history database for the weather conditions in past years. The results will help you decide how hot, cold, wet, or windy it might be!

Date:

Astronomy

Mar. 19, 2013 Rise Set
Actual Time 5:44 AM CET 5:50 PM CET
Civil Twilight 5:13 AM CET 6:20 PM CET
Nautical Twilight 4:38 AM CET 6:56 PM CET
Astronomical Twilight 4:01 AM CET 7:33 PM CET
Moon 9:56 AM CET (3/19) 12:45 AM CET (3/19)
Length of Visible Light 13h 07m
Length of Day
12h 06m
Waxing Crescent, 48% of the Moon is Illuminated
Mar 19
Waxing Crescent
Mar 19
First Quarter
Mar 27
Full
Apr 3
Last Quarter
Apr 10
New

Hourly Weather History & Observations

Time (CET) Temp. Windchill Dew Point Humidity Pressure Visibility Wind Dir Wind Speed Gust Speed Precip Events Conditions
12:01 AM 42.8 °F 35.2 °F 35.6 °F 76% 29.36 in - SSE 15.7 mph 26.8 mph N/A   Clear
12:45 AM 41.0 °F 32.9 °F 35.6 °F 81% 29.42 in 6.2 mi SSE 15.7 mph 26.8 mph N/A Rain Light Rain Showers
1:15 AM 41.0 °F 35.4 °F 35.6 °F 81% 29.42 in 6.2 mi SW 8.9 mph - N/A Rain Light Rain
1:45 AM 41.0 °F 36.5 °F 35.6 °F 81% 29.39 in 5.0 mi SSW 6.7 mph - N/A Rain Light Rain
2:15 AM 39.2 °F 33.1 °F 35.6 °F 87% 29.36 in 5.0 mi SSE 8.9 mph - N/A Rain Light Rain
2:45 AM 41.0 °F 35.4 °F 37.4 °F 87% 29.36 in 5.0 mi SSE 8.9 mph - N/A Rain Light Rain
3:15 AM 41.0 °F 34.4 °F 37.4 °F 87% 29.33 in 5.0 mi South 11.2 mph - N/A Rain Light Rain
3:45 AM 41.0 °F 34.4 °F 39.2 °F 93% 29.33 in 5.0 mi South 11.2 mph - N/A Rain Light Rain
4:15 AM 41.0 °F 33.6 °F 39.2 °F 93% 29.33 in 5.0 mi SSE 13.4 mph - N/A   Unknown
4:45 AM 41.0 °F 33.6 °F 39.2 °F 93% 29.33 in 5.0 mi South 13.4 mph - N/A   Unknown
5:15 AM 41.0 °F 33.6 °F 39.2 °F 93% 29.33 in - South 13.4 mph - N/A   Clear
5:45 AM - - - N/A% - 6.2 mi SW 13.4 mph - N/A   Mostly Cloudy
6:15 AM 41.0 °F 32.9 °F 39.2 °F 93% 29.33 in - South 15.7 mph - N/A   Clear
6:45 AM 42.8 °F 35.9 °F 39.2 °F 87% 29.36 in - South 13.4 mph - N/A   Clear
7:15 AM 42.8 °F 36.7 °F 39.2 °F 87% 29.36 in - South 11.2 mph - N/A   Clear
7:45 AM 42.8 °F 36.7 °F 39.2 °F 87% 29.36 in 6.2 mi SSW 11.2 mph - N/A Rain Light Rain Showers
8:15 AM 44.6 °F 37.6 °F 39.2 °F 81% 29.36 in 6.2 mi SSW 15.7 mph - N/A Rain Light Rain Showers
8:43 AM 44.6 °F 37.0 °F 39.2 °F 81% 29.39 in 6.2 mi SW 17.9 mph - N/A Rain Light Rain Showers
8:45 AM - - - N/A% - 6.2 mi SW 11.2 mph 26.8 mph N/A   Mostly Cloudy
8:52 AM 44.6 °F 37.0 °F 39.2 °F 81% 29.39 in 3.1 mi SW 17.9 mph 31.3 mph N/A Rain Rain Showers
9:06 AM 42.8 °F 35.9 °F 39.2 °F 87% 29.39 in 6.2 mi West 13.4 mph 24.6 mph N/A Rain Light Rain Showers
9:15 AM 42.8 °F 36.7 °F 39.2 °F 87% 29.42 in 6.2 mi West 11.2 mph - N/A Rain Light Rain Showers
9:45 AM 41.0 °F 34.4 °F 37.4 °F 87% 29.42 in 6.2 mi West 11.2 mph 31.3 mph N/A Rain Light Rain Showers
10:15 AM 42.8 °F 35.2 °F 37.4 °F 81% 29.42 in 6.2 mi West 15.7 mph - N/A   Scattered Clouds
10:45 AM 44.6 °F 37.6 °F 35.6 °F 71% 29.44 in 6.2 mi West 15.7 mph 29.1 mph N/A   Scattered Clouds
11:15 AM 46.4 °F 38.9 °F 33.8 °F 62% 29.44 in 6.2 mi WNW 20.1 mph 31.3 mph N/A   Mostly Cloudy
11:45 AM - - - N/A% - 6.2 mi WNW 15.7 mph 26.8 mph N/A   Mostly Cloudy
12:15 PM 48.2 °F - 33.8 °F 58% 29.47 in 6.2 mi WNW 22.4 mph 33.6 mph N/A   Mostly Cloudy
12:45 PM 50.0 °F - 33.8 °F 54% 29.47 in 6.2 mi WNW 17.9 mph 31.3 mph N/A   Mostly Cloudy
1:15 PM 50.0 °F - 30.2 °F 47% 29.50 in 6.2 mi WNW 20.1 mph 38.0 mph N/A   Scattered Clouds
1:45 PM 50.0 °F - 30.2 °F 47% 29.50 in 6.2 mi WNW 20.1 mph 38.0 mph N/A   Scattered Clouds
2:15 PM 51.8 °F - 30.2 °F 44% 29.50 in - WNW 22.4 mph - N/A   Clear
2:45 PM - - - N/A% - - West 15.7 mph 26.8 mph N/A   Clear
3:15 PM 51.8 °F - 30.2 °F 44% 29.53 in - WNW 17.9 mph - N/A   Clear
3:45 PM 51.8 °F - 30.2 °F 44% 29.53 in - WNW 17.9 mph - N/A   Clear
4:15 PM 51.8 °F - 30.2 °F 44% 29.56 in 6.2 mi West 15.7 mph - N/A   Scattered Clouds
4:45 PM 50.0 °F - 30.2 °F 47% 29.56 in - West 13.4 mph - N/A   Clear
5:15 PM 48.2 °F - 30.2 °F 50% 29.59 in - West 8.9 mph - N/A   Clear
5:45 PM 48.2 °F - 30.2 °F 50% 29.59 in - West 8.9 mph - N/A   Clear
6:15 PM 46.4 °F 44.4 °F 32.0 °F 57% 29.62 in - West 4.5 mph - N/A   Clear
6:45 PM 46.4 °F 43.0 °F 30.2 °F 53% 29.62 in - West 6.7 mph - N/A   Clear
7:15 PM 46.4 °F 42.0 °F 30.2 °F 53% 29.65 in - West 8.9 mph - N/A   Clear
7:45 PM 44.6 °F 40.8 °F 30.2 °F 57% 29.65 in - West 6.7 mph - N/A   Clear
8:15 PM 41.0 °F 36.5 °F 30.2 °F 65% 29.65 in - SW 6.7 mph - N/A   Clear
8:45 PM - - - N/A% - 3.1 mi SSW 6.7 mph - N/A   Clear
9:15 PM 42.8 °F 38.7 °F 30.2 °F 61% 29.68 in - SW 6.7 mph - N/A   Clear
9:45 PM 41.0 °F 36.5 °F 32.0 °F 70% 29.68 in - WSW 6.7 mph - N/A   Clear
10:15 PM 41.0 °F 36.5 °F 32.0 °F 70% 29.68 in - WSW 6.7 mph - N/A   Clear
10:45 PM 39.2 °F 34.4 °F 30.2 °F 70% 29.71 in - WSW 6.7 mph - N/A   Clear
11:15 PM 39.2 °F 34.4 °F 30.2 °F 70% 29.71 in - WSW 6.7 mph - N/A   Clear
11:45 PM - - - N/A% - 3.1 mi North - - N/A   Mist